ギャラッド彗星

C/2008 E3 ( Garradd )

English version
Home page
Total 6,336 html files since Dec. 4, 1995
Updated on May 25, 2008

---------------------------------------------------------------------

・ プロフィール

発見日 2008年3月5日
発見光度 17.8等
発見者 G. J. Garradd (Siding Spring)

・ 軌道要素

Epoch 2008 Aug. 2.0 TT = JDT 2454680.5
T 2008 Aug. 2.11797 TT                                  MPC
q   5.5308557            (2000.0)            P               Q
z  +0.0003735      Peri.  218.08206     +0.05819225     -0.36375944
 +/-0.0000493      Node   105.67425     -0.49818702     +0.79642548
e   0.9979340      Incl.  105.07632     -0.86511465     -0.48309992

・ 星図

・ 光度変化

        m1 = 6.5 + 5 logΔ + 10.0 log r

---------------------------------------------------------------------

軌道要素はM.P.E.C. 2008-K06に掲載されたものです。
星図はステラナビゲータ Ver.8 (アストロアーツ) で作成したものです。
光度グラフはComet for Windowsで作成したものです。

---------------------------------------------------------------------

Copyright(C) 1995-2008 Seiichi Yoshida (comet@aerith.net). All rights reserved.